Creek Data

    Home     View Charts     View Raw Data     Messages

ID Distance Battery Voltage Battery Current Internal Temp Internal Humidity External Temp Solar Input rssi snr Time Stamp Record
33035 14.1 3.77 0 77 39 69 5.1 -74 8 02/21/2025 04:15 PM 14714
33034 14.1 4.07 0 77 41 66 5.1 -74 8 02/21/2025 04:00 PM 14713
33033 14.2 4.00 0 87 35 72 5.1 -74 8 02/21/2025 03:45 PM 14712
33032 14.2 4.04 0 86 35 71 5.1 -73 8 02/21/2025 03:30 PM 14711
33031 14.3 3.77 0 86 34 71 5.1 -75 8 02/21/2025 03:15 PM 14710
33030 14.3 3.76 0 84 35 68 5.1 -75 7 02/21/2025 03:00 PM 14709
33029 14.3 4.00 0 84 35 66 5.1 -75 8 02/21/2025 02:45 PM 14708
33028 14.3 3.76 0 84 33 69 5.1 -74 8 02/21/2025 02:15 PM 14706
33027 14.3 3.89 0 82 34 68 5.1 -74 8 02/21/2025 02:00 PM 14705
33026 14.3 3.76 0 80 34 68 5.1 -74 8 02/21/2025 01:45 PM 14704
33025 14.3 3.76 0 79 34 67 5.1 -75 8 02/21/2025 01:30 PM 14703
33024 14.3 3.81 0 79 33 64 5.1 -74 8 02/21/2025 01:15 PM 14702
33023 14.3 3.76 0 78 33 64 5.1 -74 8 02/21/2025 01:00 PM 14701
33022 14.3 3.76 0 76 33 66 5.1 -74 8 02/21/2025 12:45 PM 14700
33021 14.3 3.76 0 74 34 63 5.1 -74 8 02/21/2025 12:30 PM 14699
33020 14.3 3.76 0 72 34 62 5.1 -74 7 02/21/2025 12:15 PM 14698
33019 14.3 3.76 0 71 34 61 5.1 -74 8 02/21/2025 12:00 PM 14697
33018 14.3 3.76 0 70 34 60 5.1 -75 8 02/21/2025 11:45 AM 14696
33017 14.3 3.76 0 68 34 59 5.1 -75 8 02/21/2025 11:30 AM 14695
33016 14.3 4.05 0 66 35 59 5.1 -75 8 02/21/2025 11:15 AM 14694
33015 14.3 3.76 0 65 34 57 5.1 -75 8 02/21/2025 11:00 AM 14693
33014 14.3 3.76 0 64 34 59 5.1 -75 8 02/21/2025 10:45 AM 14692
33013 14.3 3.76 0 62 34 58 5.1 -75 8 02/21/2025 10:30 AM 14691
33012 14.3 3.76 0 60 34 58 5.1 -75 7 02/21/2025 10:15 AM 14690
33011 14.3 4.06 0 58 35 55 5.1 -77 7 02/21/2025 10:00 AM 14689